[[{"header":{"parameterUnit":"m.s-1","parameterCategory":1,"la1":30.2991,"la2":30.254,"lo1":-89.0895,"lo2":-89.0444,"dy":0.0017,"dx":0.0017,"nx":28,"ny":28,"refTime":"2025-08-19T21:00:00:Z","depth":0,"parameterNumber":2,"parameterNumberName":"U-component_of_WINDS"},"data":[0,0,0,0,0,0,0,0,0,0,0,0,0,0,0,0,0,0,0,0,0,0,0,0,0,0,0,0,0,0,0,0,0,0,0,0,0,0,0,0,0,0,0,0,0,0,0,0,0,0,0,0,0,0,0,0,0,0,2.0477,2.0478,0,2.0573,2.0574,2.0575,2.0572,2.057,2.0569,2.0568,2.0667,2.0671,2.0675,0,0,0,0,0,0,0,0,0,0,0,0,0,2.029,2.0294,2.0477,2.0478,2.0479,2.0573,2.0574,2.0576,2.0572,2.057,2.0569,2.0567,2.0666,2.067,2.0675,0,0,0,0,0,0,0,0,0,0,0,0,0,2.0377,2.0295,2.0476,2.0488,2.0491,2.0573,2.0574,2.0576,2.0572,2.057,2.0568,2.0566,2.0664,2.067,2.0676,2.0752,0,0,2.0694,2.0696,0,0,0,0,0,0,0,0,2.0372,2.0384,2.0486,2.0488,2.049,2.0558,2.0545,2.0635,2.0573,2.0541,2.0568,2.0565,2.0633,2.0641,2.0663,2.0757,2.0761,2.0694,2.0698,2.07,2.0702,0,0,0,0,0,0,0,2.0366,2.038,2.0515,2.0487,2.049,2.0489,2.05,2.0562,2.0597,2.0544,2.0544,2.0555,2.0633,2.0658,2.0666,2.0763,2.0694,2.0699,2.0703,2.0705,2.0924,2.0927,0,0,0,0,0,0,2.0358,2.0375,2.0512,2.0518,2.0425,2.0494,2.0506,2.0539,2.0596,2.0603,2.0557,2.0555,2.0649,2.0659,2.0669,2.0763,2.07,2.0706,2.0709,2.0922,2.0925,2.0927,0,0,0,0,0,0,2.0354,2.037,2.0508,2.0446,2.0464,2.05,2.0537,2.0541,2.0566,2.0606,2.0613,2.0575,2.0648,2.0661,2.0732,2.0766,2.0708,2.0714,2.0919,2.0923,2.0926,2.0951,0,0,0,0,0,0,2.0348,2.0368,2.0398,2.0447,2.0467,2.0568,2.0539,2.0545,2.0576,2.0574,2.0625,2.0632,2.0647,2.0723,2.0738,2.0773,2.0718,2.0916,2.0921,2.0925,2.0947,2.0955,2.0961,0,0,0,0,0,2.0342,2.0401,2.0399,2.0416,2.0504,2.057,2.0582,2.0598,2.0579,2.0608,2.0635,2.063,2.076,2.073,2.0747,2.0785,2.0914,2.092,2.0925,2.0944,2.0953,2.0961,0,0,0,0,0,0,2.0354,2.0407,2.0406,2.0483,2.0522,2.057,2.0608,2.0608,2.0653,2.065,2.0668,2.068,2.0751,2.0775,2.0741,2.0862,2.0835,2.0844,2.0844,2.0853,2.086,2.0852,2.0723,0,0,0,0,0,2.0366,2.0415,2.0459,2.0522,2.0542,2.0571,2.0601,2.061,2.0652,2.0668,2.07,2.074,2.079,2.0823,2.0871,2.0951,2.0962,2.0985,2.0992,2.0997,2.1005,2.1049,2.106,2.0945,2.0945,2.0944,0,0,2.0391,2.0426,2.0455,2.0526,2.0557,2.0608,2.0585,2.064,2.0678,2.0677,2.0745,2.077,2.0817,2.0892,2.0927,2.0914,2.1039,2.1004,2.1008,2.1013,2.1055,2.1066,2.1076,2.0948,2.0947,2.0947,0,0,2.0461,2.0493,2.0549,2.0581,2.0629,2.0649,2.0662,2.071,2.0726,2.0796,2.0796,2.0842,2.0927,2.0961,2.0989,2.1074,2.1071,2.1089,2.1126,2.1168,2.1178,2.1186,2.1216,2.1227,2.1096,2.1096,2.1096,0,2.0486,2.0562,2.0578,2.0633,2.0664,2.0666,2.0723,2.0754,2.0815,2.0837,2.0822,2.093,2.0962,2.1045,2.1066,2.1089,2.1105,2.1083,2.1175,2.1183,2.1191,2.122,2.1231,2.1098,2.1098,2.1097,2.1097,0,2.059,2.0643,2.0682,2.0742,2.0777,2.0833,2.0859,2.0893,2.0899,2.092,2.0991,2.1029,2.1086,2.1106,2.1113,2.1191,2.1182,2.1171,2.1144,2.1204,2.1231,2.1242,2.11,2.11,2.1099,2.1099,0,0,2.0671,2.0739,2.0753,2.078,2.0834,2.0875,2.0931,2.0986,2.1015,2.1058,2.1106,2.1179,2.1169,2.1201,2.1212,2.125,2.1315,2.1234,2.1236,2.1248,2.1403,2.1411,2.1424,2.1314,2.1316,2.1318,2.1399,0,2.0747,2.0846,2.0863,2.0951,2.1,2.1002,2.1051,2.109,2.1111,2.1157,2.118,2.1232,2.1215,2.1235,2.1272,2.1299,2.1346,2.1293,2.1359,2.1361,2.1347,2.1438,2.1447,2.1522,2.141,2.1412,2.1414,0,2.0849,2.0894,2.0987,2.1034,2.1055,2.1099,2.1151,2.1194,2.1238,2.1251,2.1287,2.1294,2.1353,2.1324,2.1405,2.1369,2.1397,2.1414,2.1418,2.1424,2.139,2.1447,2.1546,2.1558,2.1431,2.1429,2.1428,0,2.0899,2.0983,2.1049,2.1072,2.1129,2.116,2.1185,2.1227,2.1259,2.1305,2.1326,2.1378,2.1407,2.1447,2.1468,2.1444,2.1548,2.1521,2.1561,2.1561,2.1583,2.1581,2.1688,2.1601,2.1601,2.16,2.16,0,2.0982,2.1039,2.1072,2.1113,2.1177,2.1195,2.1258,2.1282,2.132,2.1366,2.1371,2.1414,2.1439,2.1486,2.1502,2.1568,2.1581,2.1593,2.1597,2.1593,2.1591,2.1611,2.1606,2.1603,2.1603,2.1602,2.1602,0,2.1049,2.1073,2.1146,2.1194,2.1207,2.1252,2.1293,2.1333,2.1354,2.1413,2.1427,2.1461,2.1517,2.1541,2.161,2.1621,2.1696,2.1696,2.1681,2.1682,2.1721,2.1717,2.1844,2.1862,2.1764,2.1764,2.1765,0,2.11,2.1144,2.1196,2.1227,2.1253,2.1303,2.1336,2.1357,2.1391,2.1445,2.1478,2.1534,2.1579,2.1668,2.1699,2.1751,2.1753,2.1794,2.176,2.1755,2.1753,2.175,2.1755,2.1799,2.18,2.1801,2.1802,0,2.1189,2.1199,2.1246,2.1298,2.1337,2.1379,2.142,2.1445,2.1472,2.151,2.1567,2.1602,2.1672,2.1727,2.1782,2.1808,2.181,2.1812,2.1824,2.182,2.181,2.1816,2.1697,2.1809,2.1808,2.1808,2.1807,2.1807,2.125,2.1289,2.1332,2.1384,2.1417,2.1455,2.1495,2.1522,2.1569,2.1628,2.1637,2.1698,2.1741,2.1815,2.1843,2.1891,2.1881,2.1899,2.1903,2.1907,2.191,2.1802,2.1901,2.1901,2.1901,2.1901,2.1901,0,2.1339,2.1367,2.1415,2.1472,2.1514,2.1511,2.1557,2.1591,2.1644,2.1685,2.1729,2.1795,2.1849,2.1884,2.1939,2.197,2.1972,2.1984,2.1982,2.1988,2.1915,2.1899,2.1981,2.1981,2.1981,2.1981,2.1981,2.1981,2.1391,2.1456,2.1472,2.1554,2.1582,2.1641,2.1667,2.1702,2.1735,2.1807,2.1852,2.1875,2.1913,2.1971,2.202,2.2029,2.2049,2.2061,2.207,2.2001,2.1993,2.1985,2.197,2.2065,2.2065,2.2138,2.2139,2.2139]},{"header":{"parameterUnit":"m.s-1","parameterCategory":1,"la1":30.2991,"la2":30.254,"lo1":-89.0895,"lo2":-89.0444,"dy":0.0017,"dx":0.0017,"nx":28,"ny":28,"refTime":"2025-08-19T21:00:00:Z","depth":0,"parameterNumber":3,"parameterNumberName":"V-component_of_WINDS"},"data":[0,0,0,0,0,0,0,0,0,0,0,0,0,0,0,0,0,0,0,0,0,0,0,0,0,0,0,0,0,0,0,0,0,0,0,0,0,0,0,0,0,0,0,0,0,0,0,0,0,0,0,0,0,0,0,0,0,0,-1.5041,-1.5042,0,-1.5089,-1.509,-1.509,-1.5111,-1.5111,-1.5111,-1.5111,-1.516,-1.5161,-1.5163,0,0,0,0,0,0,0,0,0,0,0,0,0,-1.4967,-1.4968,-1.5041,-1.5042,-1.5042,-1.5089,-1.509,-1.509,-1.5111,-1.5111,-1.5111,-1.5111,-1.5159,-1.5161,-1.5163,0,0,0,0,0,0,0,0,0,0,0,0,0,-1.5006,-1.4969,-1.5041,-1.5058,-1.506,-1.5089,-1.509,-1.5091,-1.5111,-1.5111,-1.5111,-1.511,-1.5159,-1.5161,-1.5163,-1.5178,0,0,-1.5169,-1.517,0,0,0,0,0,0,0,0,-1.5003,-1.5008,-1.5055,-1.5057,-1.5059,-1.5094,-1.5082,-1.512,-1.5111,-1.5092,-1.5111,-1.511,-1.5138,-1.5142,-1.5151,-1.518,-1.5183,-1.5169,-1.5171,-1.5172,-1.5172,0,0,0,0,0,0,0,-1.5001,-1.5006,-1.506,-1.5056,-1.5058,-1.5063,-1.5069,-1.5089,-1.5115,-1.5093,-1.5095,-1.51,-1.5139,-1.5149,-1.5152,-1.5183,-1.5169,-1.5171,-1.5172,-1.5173,-1.5227,-1.5228,0,0,0,0,0,0,-1.4995,-1.5004,-1.5059,-1.5062,-1.5031,-1.5065,-1.5071,-1.5083,-1.5115,-1.5119,-1.51,-1.5101,-1.5145,-1.515,-1.5154,-1.5174,-1.5172,-1.5173,-1.5175,-1.5227,-1.5227,-1.5228,0,0,0,0,0,0,-1.4994,-1.5,-1.5057,-1.5033,-1.5041,-1.5066,-1.508,-1.5084,-1.5094,-1.512,-1.5125,-1.5106,-1.5146,-1.5151,-1.5172,-1.5176,-1.5174,-1.5176,-1.5227,-1.5227,-1.5228,-1.5214,0,0,0,0,0,0,-1.4991,-1.4999,-1.5005,-1.5033,-1.5042,-1.5074,-1.508,-1.5085,-1.5097,-1.5099,-1.5126,-1.5131,-1.5146,-1.5169,-1.5174,-1.5179,-1.5178,-1.5227,-1.5227,-1.5227,-1.5214,-1.5214,-1.5213,0,0,0,0,0,-1.4989,-1.5,-1.5006,-1.5012,-1.505,-1.5074,-1.5079,-1.5096,-1.5098,-1.5104,-1.5121,-1.513,-1.5175,-1.5171,-1.5177,-1.5182,-1.5227,-1.5227,-1.5227,-1.5214,-1.5214,-1.5213,0,0,0,0,0,0,-1.4972,-1.5004,-1.5011,-1.5031,-1.505,-1.5077,-1.5086,-1.5095,-1.5114,-1.5114,-1.5135,-1.5141,-1.516,-1.5173,-1.5168,-1.5199,-1.5201,-1.5203,-1.5189,-1.5189,-1.5188,-1.5185,-1.518,0,0,0,0,0,-1.497,-1.4987,-1.5014,-1.5029,-1.5038,-1.506,-1.5071,-1.5083,-1.5103,-1.5111,-1.5129,-1.5149,-1.5167,-1.5179,-1.5197,-1.5216,-1.5222,-1.5223,-1.5222,-1.5222,-1.5223,-1.5234,-1.5234,-1.5229,-1.5229,-1.5229,0,0,-1.4968,-1.4987,-1.4997,-1.5026,-1.5042,-1.5059,-1.5067,-1.5084,-1.5097,-1.5114,-1.5134,-1.5148,-1.5171,-1.5191,-1.5201,-1.5203,-1.5226,-1.5222,-1.5222,-1.5223,-1.5234,-1.5235,-1.5235,-1.5229,-1.5229,-1.5229,0,0,-1.4972,-1.4988,-1.5002,-1.5018,-1.5042,-1.5056,-1.506,-1.5086,-1.5096,-1.5117,-1.513,-1.5145,-1.5176,-1.5192,-1.5204,-1.5213,-1.5222,-1.5218,-1.5216,-1.5227,-1.5227,-1.5228,-1.5231,-1.5232,-1.522,-1.522,-1.522,0,-1.4965,-1.4991,-1.5009,-1.5025,-1.5038,-1.5054,-1.5068,-1.5083,-1.5111,-1.5119,-1.5121,-1.5161,-1.5177,-1.5201,-1.5203,-1.5212,-1.5217,-1.5215,-1.5226,-1.5226,-1.5227,-1.523,-1.5231,-1.5219,-1.5219,-1.5219,-1.5219,0,-1.4982,-1.4999,-1.5008,-1.5035,-1.5049,-1.5064,-1.5084,-1.5096,-1.5106,-1.512,-1.5141,-1.5162,-1.5184,-1.5191,-1.5201,-1.5216,-1.5216,-1.5222,-1.5225,-1.5226,-1.523,-1.5231,-1.5218,-1.5218,-1.5218,-1.5219,0,0,-1.4977,-1.5013,-1.5016,-1.5028,-1.5055,-1.5069,-1.5085,-1.5107,-1.5116,-1.5135,-1.5149,-1.5175,-1.518,-1.5194,-1.5206,-1.5215,-1.5221,-1.5219,-1.522,-1.5219,-1.5238,-1.5234,-1.5235,-1.5227,-1.5227,-1.5227,-1.5236,0,-1.4984,-1.5013,-1.503,-1.5052,-1.5068,-1.5083,-1.5097,-1.5115,-1.5129,-1.5145,-1.516,-1.5178,-1.5183,-1.5192,-1.5201,-1.5218,-1.5225,-1.5217,-1.524,-1.524,-1.5234,-1.5237,-1.5232,-1.5239,-1.5237,-1.5238,-1.5238,0,-1.4996,-1.5015,-1.5039,-1.5064,-1.5071,-1.5083,-1.5105,-1.5119,-1.514,-1.5149,-1.5164,-1.5176,-1.5194,-1.5196,-1.522,-1.5215,-1.5225,-1.5234,-1.5235,-1.5238,-1.5239,-1.5239,-1.5242,-1.5243,-1.524,-1.524,-1.524,0,-1.499,-1.5021,-1.5039,-1.5049,-1.5078,-1.5087,-1.5099,-1.512,-1.5132,-1.5151,-1.5159,-1.5179,-1.519,-1.5206,-1.5223,-1.5223,-1.5245,-1.5249,-1.5254,-1.5253,-1.5258,-1.5257,-1.5262,-1.5264,-1.5264,-1.5264,-1.5264,0,-1.4996,-1.501,-1.5036,-1.5047,-1.5064,-1.5082,-1.5098,-1.5112,-1.513,-1.5144,-1.5158,-1.5171,-1.5193,-1.5209,-1.5223,-1.5241,-1.5246,-1.5254,-1.5257,-1.5252,-1.5251,-1.5259,-1.5259,-1.5265,-1.5265,-1.5265,-1.5264,0,-1.4992,-1.501,-1.5031,-1.5056,-1.5063,-1.5074,-1.5096,-1.5108,-1.5122,-1.514,-1.5145,-1.5168,-1.5187,-1.5206,-1.5232,-1.5241,-1.5259,-1.5263,-1.5252,-1.5253,-1.5257,-1.5257,-1.5268,-1.527,-1.527,-1.527,-1.527,0,-1.4994,-1.5006,-1.5033,-1.5043,-1.5055,-1.5072,-1.5084,-1.5103,-1.5115,-1.5139,-1.5148,-1.5168,-1.5185,-1.5215,-1.5234,-1.5254,-1.5259,-1.5261,-1.5262,-1.5257,-1.5259,-1.5258,-1.5259,-1.5261,-1.5261,-1.5261,-1.5261,0,-1.4997,-1.5006,-1.5023,-1.5043,-1.5057,-1.5073,-1.5091,-1.5098,-1.512,-1.5133,-1.5153,-1.5166,-1.5193,-1.5213,-1.5235,-1.5248,-1.5258,-1.526,-1.5263,-1.5258,-1.525,-1.5254,-1.525,-1.526,-1.526,-1.526,-1.526,-1.526,-1.4997,-1.5007,-1.5028,-1.5046,-1.5061,-1.5076,-1.5088,-1.5104,-1.5121,-1.5143,-1.5153,-1.5173,-1.5193,-1.5224,-1.5237,-1.5253,-1.5255,-1.5259,-1.5259,-1.526,-1.5259,-1.5248,-1.5257,-1.5257,-1.5257,-1.5257,-1.5257,0,-1.5,-1.5014,-1.5031,-1.5054,-1.5068,-1.5076,-1.5096,-1.5107,-1.5125,-1.5143,-1.5159,-1.5182,-1.5201,-1.5221,-1.5242,-1.5251,-1.5256,-1.5255,-1.5255,-1.5258,-1.5256,-1.5252,-1.5251,-1.5251,-1.5251,-1.5251,-1.5251,-1.5251,-1.5004,-1.5022,-1.5032,-1.5058,-1.5072,-1.5091,-1.5101,-1.5116,-1.513,-1.5155,-1.5171,-1.5184,-1.5202,-1.5224,-1.5243,-1.5248,-1.5255,-1.5253,-1.526,-1.5257,-1.5258,-1.5258,-1.5255,-1.5255,-1.5255,-1.5261,-1.5261,-1.5261]}]]